Mount Sterling, KY

6:53 PM EST on February 22, 2017 (GMT -0500)
Mount Sterling-Montgomery County

Weather History for KIOB - March, 2013

Change the Weather History Date:

Tuesday, March 19, 2013

  Actual Average Record
Temperature  
Mean Temperature 40 °F -  
Max Temperature 46 °F 58 °F 57 °F (2014)
Min Temperature 33 °F 34 °F 33 °F (2013)
Degree Days  
Heating Degree Days 26    
Moisture  
Dew Point 25 °F    
Average Humidity 61    
Maximum Humidity 93    
Minimum Humidity 27    
Precipitation  
Precipitation 0.00 in - - ()
Sea Level Pressure  
Sea Level Pressure 30.04 in    
Wind  
Wind Speed 12 mph (WNW)    
Max Wind Speed 23 mph    
Max Gust Speed 34 mph    
Visibility 10 miles    
Events      
Averages and records for this station are not official NWS values.
T = Trace of Precipitation, MM = Missing Value Source: NWS Daily Summary

Daily Weather History Graph

Daily Weather History Graph

Search for Another Location

Airport or City:

Trip Planner

Search our weather history database for the weather conditions in past years. The results will help you decide how hot, cold, wet, or windy it might be!

Date:

Astronomy

Mar. 19, 2013 Rise Set
Actual Time 7:40 AM EDT 7:47 PM EDT
Civil Twilight 7:14 AM EDT 8:13 PM EDT
Nautical Twilight 6:43 AM EDT 8:44 PM EDT
Astronomical Twilight 6:12 AM EDT 9:15 PM EDT
Moon 12:35 PM EDT (3/19) 2:28 AM EDT (3/19)
Length of Visible Light 12h 59m
Length of Day
12h 06m
Waxing Crescent, 49% of the Moon is Illuminated
Mar 19
Waxing Crescent
Mar 19
First Quarter
Mar 27
Full
Apr 3
Last Quarter
Apr 10
New

Hourly Weather History & Observations

Time (EDT) Temp. Windchill Dew Point Humidity Pressure Visibility Wind Dir Wind Speed Gust Speed Precip Events Conditions
12:15 AM 42.8 °F 35.4 °F 37.4 °F 81% 29.88 in 10.0 mi NW 15.0 mph 20.7 mph N/A   Overcast
12:35 AM 42.8 °F 35.1 °F 35.6 °F 76% 29.89 in 10.0 mi WNW 16.1 mph - N/A   Overcast
12:55 AM 41.0 °F 35.2 °F 33.8 °F 76% 29.90 in 10.0 mi WNW 9.2 mph 21.9 mph N/A   Overcast
1:15 AM 39.2 °F 33.6 °F 32.0 °F 75% 29.91 in 10.0 mi WNW 8.1 mph 17.3 mph N/A   Scattered Clouds
1:35 AM 37.4 °F 32.8 °F 32.0 °F 81% 29.91 in 10.0 mi WNW 5.8 mph - N/A   Clear
1:55 AM 37.4 °F 32.8 °F 32.0 °F 81% 29.93 in 10.0 mi WNW 5.8 mph - N/A   Clear
2:15 AM 35.6 °F 31.7 °F 32.0 °F 87% 29.93 in 10.0 mi West 4.6 mph - N/A   Clear
2:35 AM 35.6 °F 30.7 °F 33.8 °F 93% 29.94 in 10.0 mi West 5.8 mph - N/A   Clear
2:55 AM 35.6 °F 30.7 °F 33.8 °F 93% 29.95 in 10.0 mi West 5.8 mph - N/A   Clear
3:15 AM 35.6 °F 29.9 °F 32.0 °F 87% 29.95 in 10.0 mi WSW 6.9 mph - N/A   Clear
3:35 AM 35.6 °F 29.2 °F 32.0 °F 87% 29.95 in 10.0 mi West 8.1 mph - N/A   Scattered Clouds
3:55 AM 35.6 °F 28.6 °F 32.0 °F 87% 29.95 in 10.0 mi WSW 9.2 mph - N/A   Overcast
4:15 AM 37.4 °F 30.8 °F 33.8 °F 87% 29.95 in 10.0 mi WSW 9.2 mph - N/A   Overcast
4:35 AM 35.6 °F 28.6 °F 33.8 °F 93% 29.95 in 10.0 mi WSW 9.2 mph - N/A   Scattered Clouds
4:55 AM 35.6 °F 29.2 °F 33.8 °F 93% 29.95 in 10.0 mi WSW 8.1 mph - N/A   Clear
5:15 AM 35.6 °F 29.2 °F 33.8 °F 93% 29.96 in 10.0 mi West 8.1 mph - N/A   Clear
5:35 AM 35.6 °F 27.1 °F 33.8 °F 93% 29.96 in 10.0 mi West 12.7 mph 17.3 mph N/A   Mostly Cloudy
5:55 AM 35.6 °F 27.5 °F 33.8 °F 93% 29.96 in 10.0 mi West 11.5 mph 17.3 mph N/A   Overcast
6:15 AM 35.6 °F 27.5 °F 33.8 °F 93% 29.97 in 10.0 mi West 11.5 mph 18.4 mph N/A   Mostly Cloudy
6:35 AM 35.6 °F 28.0 °F 32.0 °F 87% 29.97 in 10.0 mi West 10.4 mph 17.3 mph N/A   Scattered Clouds
6:55 AM 35.6 °F 28.6 °F 32.0 °F 87% 29.97 in 10.0 mi West 9.2 mph - N/A   Clear
7:15 AM 35.6 °F 28.0 °F 32.0 °F 87% 29.98 in 10.0 mi West 10.4 mph 16.1 mph N/A   Scattered Clouds
7:35 AM 33.8 °F 27.0 °F 32.0 °F 93% 29.99 in 10.0 mi West 8.1 mph - N/A   Scattered Clouds
7:55 AM 33.8 °F 27.0 °F 32.0 °F 93% 29.98 in 10.0 mi West 8.1 mph - N/A   Clear
8:15 AM 33.8 °F 27.0 °F 32.0 °F 93% 29.99 in 10.0 mi West 8.1 mph - N/A   Clear
8:35 AM 33.8 °F 27.0 °F 32.0 °F 93% 29.99 in 10.0 mi West 8.1 mph - N/A   Clear
8:55 AM 35.6 °F 25.9 °F 32.0 °F 87% 30.00 in 10.0 mi West 16.1 mph 19.6 mph N/A   Mostly Cloudy
9:15 AM 35.6 °F 25.5 °F 32.0 °F 87% 30.01 in 10.0 mi WNW 17.3 mph 21.9 mph N/A   Overcast
9:35 AM 35.6 °F 26.2 °F 30.2 °F 81% 30.02 in 10.0 mi WNW 15.0 mph 26.5 mph N/A   Mostly Cloudy
9:55 AM 35.6 °F 25.5 °F 28.4 °F 75% 30.03 in 10.0 mi WNW 17.3 mph 23.0 mph N/A   Scattered Clouds
10:15 AM 35.6 °F 26.6 °F 28.4 °F 75% 30.03 in 10.0 mi West 13.8 mph 23.0 mph N/A   Scattered Clouds
10:35 AM 37.4 °F 28.2 °F 28.4 °F 70% 30.03 in 10.0 mi WNW 16.1 mph 21.9 mph N/A   Clear
10:55 AM 37.4 °F 28.2 °F 26.6 °F 65% 30.03 in 10.0 mi West 16.1 mph 25.3 mph N/A   Clear
11:15 AM 39.2 °F 30.5 °F 26.6 °F 61% 30.05 in 10.0 mi WNW 16.1 mph 24.2 mph N/A   Clear
11:35 AM 39.2 °F 30.8 °F 23.0 °F 52% 30.05 in 10.0 mi West 15.0 mph 23.0 mph N/A   Clear
11:55 AM 41.0 °F 32.8 °F 23.0 °F 49% 30.03 in 10.0 mi West 16.1 mph 26.5 mph N/A   Clear
12:15 PM 41.0 °F 32.8 °F 21.2 °F 45% 30.06 in 10.0 mi WNW 16.1 mph 25.3 mph N/A   Clear
12:35 PM 41.0 °F 32.5 °F 21.2 °F 45% 30.06 in 10.0 mi WNW 17.3 mph 31.1 mph N/A   Clear
12:55 PM 41.0 °F 32.5 °F 19.4 °F 42% 30.06 in 10.0 mi West 17.3 mph 32.2 mph N/A   Clear
1:15 PM 42.8 °F 33.5 °F 23.0 °F 46% 30.07 in 10.0 mi West 23.0 mph 28.8 mph N/A   Clear
1:35 PM 42.8 °F 35.1 °F 21.2 °F 42% 30.07 in 10.0 mi WNW 16.1 mph 28.8 mph N/A   Clear
1:55 PM 44.6 °F 36.9 °F 21.2 °F 39% 30.07 in 10.0 mi West 18.4 mph 25.3 mph N/A   Clear
2:15 PM 44.6 °F 36.9 °F 23.0 °F 43% 30.07 in 10.0 mi West 18.4 mph 27.6 mph N/A   Clear
2:35 PM 44.6 °F 35.9 °F 23.0 °F 43% 30.07 in 10.0 mi WNW 23.0 mph 32.2 mph N/A   Clear
2:55 PM 44.6 °F 35.9 °F 21.2 °F 39% 30.08 in 10.0 mi WNW 23.0 mph 32.2 mph N/A   Clear
3:15 PM 46.4 °F 38.7 °F 21.2 °F 37% 30.07 in 10.0 mi WNW 20.7 mph 28.8 mph N/A   Clear
3:35 PM 46.4 °F 38.7 °F 17.6 °F 32% 30.07 in 10.0 mi NW 20.7 mph 34.5 mph N/A   Clear
3:55 PM 46.4 °F 38.3 °F 17.6 °F 32% 30.07 in 10.0 mi WNW 23.0 mph 31.1 mph N/A   Clear
4:15 PM 46.4 °F 39.5 °F 19.4 °F 34% 30.08 in 10.0 mi WNW 17.3 mph 33.4 mph N/A   Clear
4:35 PM 46.4 °F 39.5 °F 15.8 °F 29% 30.09 in 10.0 mi NW 17.3 mph 29.9 mph N/A   Clear
4:55 PM 46.4 °F 39.2 °F 17.6 °F 32% 30.09 in 10.0 mi WNW 18.4 mph - N/A   Unknown
5:15 PM 46.4 °F 40.4 °F 15.8 °F 29% 30.10 in 10.0 mi NW 13.8 mph 24.2 mph N/A   Clear
5:35 PM 46.4 °F 39.0 °F 17.6 °F 32% 30.10 in 10.0 mi NW 19.6 mph 27.6 mph N/A   Clear
5:55 PM 44.6 °F 38.4 °F 14.0 °F 29% 30.10 in 10.0 mi NW 12.7 mph 26.5 mph N/A   Clear
6:15 PM 44.6 °F 37.4 °F 15.8 °F 31% 30.10 in 10.0 mi WNW 16.1 mph 26.5 mph N/A   Clear
6:35 PM 44.6 °F 37.2 °F 12.2 °F 27% 30.10 in 10.0 mi NW 17.3 mph 24.2 mph N/A   Clear
6:55 PM 44.6 °F 39.2 °F 12.2 °F 27% 30.10 in 10.0 mi NW 10.4 mph - N/A   Clear
7:15 PM 42.8 °F 38.0 °F 14.0 °F 31% 30.11 in 10.0 mi NW 8.1 mph - N/A   Clear
7:35 PM 41.0 °F 35.8 °F 17.6 °F 39% 30.12 in 10.0 mi WNW 8.1 mph - N/A   Clear
7:55 PM 41.0 °F 35.8 °F 17.6 °F 39% 30.12 in 10.0 mi WNW 8.1 mph - N/A   Clear
8:15 PM 39.2 °F 34.2 °F 17.6 °F 42% 30.12 in 10.0 mi WNW 6.9 mph - N/A   Clear
8:35 PM 39.2 °F 33.6 °F 17.6 °F 42% 30.12 in 10.0 mi WNW 8.1 mph - N/A   Clear
8:55 PM 39.2 °F 33.0 °F 17.6 °F 42% 30.13 in 10.0 mi NW 9.2 mph 16.1 mph N/A   Clear
9:15 PM 39.2 °F 33.6 °F 17.6 °F 42% 30.14 in 10.0 mi WNW 8.1 mph - N/A   Clear
9:35 PM 37.4 °F 32.8 °F 19.4 °F 48% 30.14 in 10.0 mi WNW 5.8 mph - N/A   Clear
9:55 PM 35.6 °F 29.9 °F 19.4 °F 52% 30.14 in 10.0 mi WNW 6.9 mph - N/A   Clear
10:15 PM 37.4 °F 31.4 °F 19.4 °F 48% 30.14 in 10.0 mi WNW 8.1 mph - N/A   Clear
10:35 PM 37.4 °F 32.8 °F 19.4 °F 48% 30.14 in 10.0 mi WNW 5.8 mph - N/A   Clear
10:55 PM 35.6 °F 30.7 °F 19.4 °F 52% 30.14 in 10.0 mi WNW 5.8 mph - N/A   Clear
11:15 PM 35.6 °F 29.9 °F 19.4 °F 52% 30.14 in 10.0 mi WNW 6.9 mph - N/A   Clear
11:35 PM 35.6 °F 29.2 °F 17.6 °F 48% 30.14 in 10.0 mi NW 8.1 mph - N/A   Clear
11:55 PM 35.6 °F 29.9 °F 17.6 °F 48% 30.14 in 10.0 mi NW 6.9 mph - N/A   Clear